Location: Greenwich
(51.4790°N, 0.0090°E)
Time: 17:07:10
(UTC+01:00)

Explorer 7 - Pass Details

Date: 22 April 2024
Orbit: 467 x 626 km, 50.3° (Epoch: 17 May)

Event Time Altitude Azimuth Distance (km) Brightness Sun altitude
Rises 15:47:54 0° 281° (W) 2,918 11.0 38.2°
Reaches altitude 10° 15:50:17 10° 277° (W) 2,002 10.5 37.9°
Maximum altitude 15:54:46 52° 201° (SSW) 771 8.8 37.3°
Drops below altitude 10° 15:59:06 10° 126° (SE) 1,939 9.5 36.7°
Sets 16:01:23 0° 121° (ESE) 2,816 10.2 36.4°
